JST105 YBBN-NCRG

Flight info

Callsign JST105
Flight time N/A
Altitude 33000
Route GUMKI Y98 BONEY G329 NF R582 KADEN/N0456F350 R582 OMBOL ANIVA1A
Aircraft A21N/M-SDE2E3FGHIJ1RWXY/LB1

Departure

Time N/A
Airport Brisbane International Airport (YBBN)

Arrival

Time 2026-05-05 22:07
Airport Rarotonga International Airport (NCRG)
Time Latitude Longitude Altitude Speed Heading
2026-05-05 21:16 -21.92066 -161.78094 33082 ft 471 kts 64°
2026-05-05 21:16 -21.90925 -161.74792 33079 ft 471 kts 64°
2026-05-05 21:16 -21.88655 -161.68232 33076 ft 468 kts 64°
2026-05-05 21:17 -21.87503 -161.64929 32389 ft 466 kts 64°
2026-05-05 21:17 -21.86351 -161.61649 31488 ft 471 kts 64°
2026-05-05 21:17 -21.85190 -161.58338 31085 ft 474 kts 64°
2026-05-05 21:17 -21.84040 -161.55059 30815 ft 475 kts 64°
2026-05-05 21:18 -21.82860 -161.51693 30563 ft 475 kts 64°
2026-05-05 21:18 -21.81690 -161.48367 30325 ft 475 kts 64°
2026-05-05 21:18 -21.80533 -161.45086 30092 ft 475 kts 64°
2026-05-05 21:18 -21.79364 -161.41764 29539 ft 473 kts 64°
2026-05-05 21:19 -21.78201 -161.38460 28793 ft 473 kts 64°
2026-05-05 21:19 -21.77032 -161.35145 28062 ft 473 kts 64°
2026-05-05 21:19 -21.75868 -161.31841 27370 ft 472 kts 65°
2026-05-05 21:19 -21.74703 -161.28539 26656 ft 472 kts 64°
2026-05-05 21:20 -21.73536 -161.25245 25977 ft 472 kts 64°
2026-05-05 21:20 -21.72369 -161.21944 25308 ft 471 kts 65°
2026-05-05 21:20 -21.71203 -161.18654 24633 ft 470 kts 65°
2026-05-05 21:20 -21.70045 -161.15375 23946 ft 468 kts 65°
2026-05-05 21:21 -21.68886 -161.12105 23191 ft 467 kts 65°
2026-05-05 21:21 -21.67738 -161.08855 22413 ft 464 kts 65°
2026-05-05 21:21 -21.66591 -161.05616 21663 ft 461 kts 66°
2026-05-05 21:21 -21.65452 -161.02412 20947 ft 458 kts 66°
2026-05-05 21:22 -21.64323 -160.99227 20269 ft 453 kts 66°
2026-05-05 21:22 -21.63173 -160.96091 19618 ft 448 kts 63°
2026-05-05 21:22 -21.61804 -160.93118 19001 ft 442 kts 60°
2026-05-05 21:22 -21.60402 -160.90193 18394 ft 437 kts 60°
2026-05-05 21:23 -21.59016 -160.87310 17751 ft 432 kts 60°
2026-05-05 21:23 -21.57659 -160.84475 17111 ft 427 kts 60°
2026-05-05 21:23 -21.56327 -160.81692 16540 ft 420 kts 60°
2026-05-05 21:23 -21.55003 -160.78925 15971 ft 414 kts 60°
2026-05-05 21:24 -21.53696 -160.76191 15411 ft 408 kts 60°
2026-05-05 21:24 -21.52412 -160.73502 14848 ft 403 kts 60°
2026-05-05 21:24 -21.51142 -160.70839 14276 ft 398 kts 61°
2026-05-05 21:24 -21.49891 -160.68215 13693 ft 393 kts 61°
2026-05-05 21:25 -21.48669 -160.65653 13099 ft 387 kts 61°
2026-05-05 21:25 -21.47433 -160.63063 12546 ft 381 kts 61°
2026-05-05 21:25 -21.46252 -160.60583 12019 ft 375 kts 60°
2026-05-05 21:25 -21.45072 -160.58108 11495 ft 370 kts 60°
2026-05-05 21:26 -21.43910 -160.55677 11145 ft 361 kts 60°
2026-05-05 21:26 -21.42783 -160.53323 10927 ft 348 kts 60°
2026-05-05 21:26 -21.41706 -160.51068 10664 ft 332 kts 60°
2026-05-05 21:26 -21.40672 -160.48904 10400 ft 318 kts 60°
2026-05-05 21:27 -21.39681 -160.46838 10161 ft 305 kts 59°
2026-05-05 21:27 -21.38734 -160.44861 9942 ft 293 kts 59°
2026-05-05 21:27 -21.37809 -160.42934 9573 ft 290 kts 59°
2026-05-05 21:27 -21.36885 -160.41010 9173 ft 289 kts 59°
2026-05-05 21:28 -21.35968 -160.39102 8793 ft 287 kts 60°
2026-05-05 21:28 -21.35061 -160.37214 8443 ft 283 kts 60°
2026-05-05 21:28 -21.34168 -160.35353 8154 ft 278 kts 60°
2026-05-05 21:28 -21.33287 -160.33514 7813 ft 276 kts 61°
2026-05-05 21:29 -21.32411 -160.31689 7488 ft 274 kts 61°
2026-05-05 21:29 -21.31549 -160.29893 7155 ft 268 kts 62°
2026-05-05 21:29 -21.30704 -160.28134 6809 ft 264 kts 62°
2026-05-05 21:29 -21.29868 -160.26394 6462 ft 266 kts 63°
2026-05-05 21:30 -21.29001 -160.24604 6184 ft 270 kts 63°
2026-05-05 21:30 -21.28129 -160.22810 5906 ft 269 kts 63°
2026-05-05 21:30 -21.27291 -160.21069 5661 ft 263 kts 64°
2026-05-05 21:30 -21.26467 -160.19349 5445 ft 255 kts 64°
2026-05-05 21:31 -21.25664 -160.17677 5067 ft 252 kts 64°
2026-05-05 21:31 -21.24854 -160.15991 4633 ft 254 kts 64°
2026-05-05 21:31 -21.24061 -160.14344 4350 ft 244 kts 65°
2026-05-05 21:31 -21.23301 -160.12768 4152 ft 233 kts 65°
2026-05-05 21:32 -21.22579 -160.11270 4010 ft 220 kts 65°
2026-05-05 21:32 -21.21895 -160.09852 3849 ft 207 kts 65°
2026-05-05 21:32 -21.21257 -160.08528 3661 ft 190 kts 65°
2026-05-05 21:32 -21.20679 -160.07329 3570 ft 174 kts 65°
2026-05-05 21:33 -21.20264 -160.06152 3299 ft 166 kts 82°
2026-05-05 21:33 -21.20244 -160.04911 3037 ft 170 kts 91°
2026-05-05 21:33 -21.20251 -160.03636 2980 ft 173 kts 90°
2026-05-05 21:33 -21.20252 -160.02348 2992 ft 173 kts 90°
2026-05-05 21:34 -21.20255 -160.01062 2997 ft 172 kts 90°
2026-05-05 21:34 -21.20259 -159.99782 3000 ft 171 kts 90°
2026-05-05 21:34 -21.20231 -159.98509 2890 ft 173 kts 84°
2026-05-05 21:34 -21.20085 -159.97236 2784 ft 172 kts 78°
2026-05-05 21:35 -21.19364 -159.96204 2632 ft 181 kts 44°
2026-05-05 21:35 -21.18291 -159.95476 2591 ft 185 kts 34°
2026-05-05 21:35 -21.17063 -159.95013 2582 ft 191 kts 19°
2026-05-05 21:35 -21.15709 -159.94966 2570 ft 199 kts
2026-05-05 21:36 -21.14378 -159.95404 2559 ft 208 kts 340°
2026-05-05 21:36 -21.13212 -159.96356 2542 ft 217 kts 317°
2026-05-05 21:36 -21.12409 -159.97727 2541 ft 220 kts 296°
2026-05-05 21:36 -21.12089 -159.99295 2384 ft 215 kts 266°
2026-05-05 21:37 -21.12573 -160.00801 2216 ft 216 kts 231°
2026-05-05 21:37 -21.13667 -160.01808 2176 ft 203 kts 198°
2026-05-05 21:37 -21.15003 -160.02100 2206 ft 191 kts 170°
2026-05-05 21:37 -21.16241 -160.01740 2212 ft 181 kts 147°
2026-05-05 21:38 -21.17164 -160.01169 2227 ft 180 kts 143°
2026-05-05 21:38 -21.17681 -160.00846 2228 ft 180 kts 143°
2026-05-05 21:38 -21.18761 -160.00191 2225 ft 178 kts 144°
2026-05-05 21:38 -21.19792 -159.99472 2230 ft 174 kts 130°
2026-05-05 21:39 -21.20281 -159.98365 2239 ft 162 kts 97°
2026-05-05 21:39 -21.20274 -159.97132 2254 ft 167 kts 90°
2026-05-05 21:39 -21.20265 -159.95889 2232 ft 169 kts 90°
2026-05-05 21:39 -21.20262 -159.95061 2079 ft 166 kts 90°
2026-05-05 21:40 -21.20265 -159.93495 1897 ft 144 kts 90°
2026-05-05 21:40 -21.20263 -159.92799 1904 ft 141 kts 89°
2026-05-05 21:40 -21.20258 -159.91830 1933 ft 124 kts 88°
2026-05-05 21:40 -21.20265 -159.90925 1859 ft 120 kts 88°
2026-05-05 21:41 -21.20266 -159.90033 1692 ft 120 kts 90°
2026-05-05 21:41 -21.20268 -159.89130 1487 ft 122 kts 91°
2026-05-05 21:41 -21.20266 -159.88227 1319 ft 121 kts 91°
2026-05-05 21:41 -21.20268 -159.87322 1153 ft 122 kts 91°
2026-05-05 21:42 -21.20263 -159.86406 976 ft 123 kts 89°
2026-05-05 21:42 -21.20265 -159.85521 832 ft 120 kts 90°
2026-05-05 21:42 -21.20253 -159.84612 677 ft 123 kts 90°
2026-05-05 21:42 -21.20244 -159.83733 518 ft 116 kts 91°
2026-05-05 21:43 -21.20255 -159.82816 369 ft 140 kts 90°
2026-05-05 21:43 -21.20250 -159.81869 1277 ft 113 kts 89°
2026-05-05 21:43 -21.20250 -159.80989 1546 ft 125 kts 89°
2026-05-05 21:43 -21.20249 -159.79926 1773 ft 161 kts 90°
2026-05-05 21:44 -21.20267 -159.78631 2262 ft 184 kts 91°
2026-05-05 21:44 -21.20271 -159.77168 2736 ft 207 kts 90°
2026-05-05 21:44 -21.20241 -159.75613 2945 ft 210 kts 81°
2026-05-05 21:44 -21.19623 -159.74196 2997 ft 216 kts 52°
2026-05-05 21:45 -21.18350 -159.73301 3006 ft 227 kts 23°
2026-05-05 21:45 -21.16739 -159.73203 3002 ft 241 kts 354°
2026-05-05 21:45 -21.15197 -159.73978 2999 ft 254 kts 325°
2026-05-05 21:45 -21.14110 -159.75473 2998 ft 261 kts 296°
2026-05-05 21:46 -21.13682 -159.77368 3006 ft 262 kts 277°
2026-05-05 21:46 -21.13535 -159.79296 3008 ft 263 kts 274°
2026-05-05 21:46 -21.13416 -159.81289 3002 ft 265 kts 274°
2026-05-05 21:46 -21.13297 -159.83248 3003 ft 263 kts 274°
2026-05-05 21:47 -21.13173 -159.85201 3000 ft 263 kts 274°
2026-05-05 21:47 -21.13051 -159.87160 2997 ft 265 kts 274°
2026-05-05 21:47 -21.12925 -159.89119 2999 ft 264 kts 274°
2026-05-05 21:47 -21.12797 -159.91076 3001 ft 263 kts 275°
2026-05-05 21:48 -21.12735 -159.93001 2995 ft 261 kts 270°
2026-05-05 21:48 -21.12749 -159.94954 2990 ft 261 kts 269°
2026-05-05 21:48 -21.12762 -159.96906 2989 ft 261 kts 269°
2026-05-05 21:48 -21.12776 -159.98854 2989 ft 262 kts 269°
2026-05-05 21:49 -21.12796 -160.00780 2971 ft 250 kts 269°
2026-05-05 21:49 -21.12831 -160.02570 2956 ft 227 kts 263°
2026-05-05 21:49 -21.13270 -160.04134 3029 ft 218 kts 238°
2026-05-05 21:49 -21.14206 -160.05365 3011 ft 212 kts 214°
2026-05-05 21:50 -21.15454 -160.06122 3006 ft 203 kts 192°
2026-05-05 21:50 -21.16811 -160.06358 3000 ft 195 kts 174°
2026-05-05 21:50 -21.18077 -160.06065 2991 ft 183 kts 145°
2026-05-05 21:50 -21.18961 -160.05151 2995 ft 175 kts 116°
2026-05-05 21:51 -21.19337 -160.03933 3007 ft 174 kts 99°
2026-05-05 21:51 -21.19564 -160.02671 3007 ft 172 kts 100°
2026-05-05 21:51 -21.19816 -160.01414 2996 ft 171 kts 101°
2026-05-05 21:51 -21.20074 -160.00172 2996 ft 170 kts 101°
2026-05-05 21:52 -21.20269 -159.97639 2702 ft 172 kts 90°
2026-05-05 21:52 -21.20263 -159.96367 2393 ft 168 kts 90°
2026-05-05 21:52 -21.20260 -159.95150 2071 ft 160 kts 90°
2026-05-05 21:53 -21.20265 -159.93999 1888 ft 147 kts 90°
2026-05-05 21:53 -21.20262 -159.93014 1878 ft 125 kts 90°
2026-05-05 21:53 -21.20265 -159.92089 1892 ft 124 kts 90°
2026-05-05 21:53 -21.20265 -159.91174 1904 ft 122 kts 89°
2026-05-05 21:54 -21.20261 -159.90264 1753 ft 121 kts 90°
2026-05-05 21:54 -21.20269 -159.89366 1564 ft 121 kts 91°
2026-05-05 21:54 -21.20266 -159.88458 1385 ft 122 kts 91°
2026-05-05 21:54 -21.20269 -159.87552 1185 ft 122 kts 89°
2026-05-05 21:55 -21.20258 -159.86642 978 ft 123 kts 90°
2026-05-05 21:55 -21.20261 -159.85744 847 ft 120 kts 91°
2026-05-05 21:55 -21.20258 -159.84852 736 ft 120 kts 90°
2026-05-05 21:55 -21.20249 -159.83975 610 ft 116 kts 91°
2026-05-05 21:56 -21.20258 -159.83098 349 ft 125 kts 90°
2026-05-05 21:56 -21.20257 -159.82180 202 ft 121 kts 90°
2026-05-05 21:56 -21.20257 -159.81276 49 ft 120 kts 90°
2026-05-05 21:56 -21.20255 -159.80395 42 ft 137 kts 90°
2026-05-05 21:57 -21.20246 -159.79256 688 ft 157 kts 91°
2026-05-05 21:57 -21.20203 -159.78018 1532 ft 180 kts 81°
2026-05-05 21:57 -21.19585 -159.76745 2059 ft 209 kts 49°
2026-05-05 21:57 -21.18263 -159.75904 2682 ft 241 kts 23°
2026-05-05 21:58 -21.16488 -159.75733 2948 ft 267 kts 358°
2026-05-05 21:58 -21.14707 -159.76395 3007 ft 278 kts 333°
2026-05-05 21:58 -21.13286 -159.77831 3010 ft 287 kts 307°
2026-05-05 21:58 -21.12509 -159.79794 3005 ft 291 kts 282°
2026-05-05 21:59 -21.12263 -159.81959 3012 ft 293 kts 275°
2026-05-05 21:59 -21.12117 -159.84131 3008 ft 293 kts 274°
2026-05-05 21:59 -21.11980 -159.86277 3004 ft 293 kts 274°
2026-05-05 21:59 -21.11843 -159.88455 2991 ft 293 kts 274°
2026-05-05 22:00 -21.11700 -159.90660 2989 ft 293 kts 274°
2026-05-05 22:00 -21.11564 -159.92801 2993 ft 291 kts 274°
2026-05-05 22:00 -21.11430 -159.94964 2988 ft 292 kts 274°
2026-05-05 22:00 -21.11286 -159.97138 2989 ft 288 kts 274°
2026-05-05 22:01 -21.11286 -159.99220 2971 ft 272 kts 259°
2026-05-05 22:01 -21.11882 -160.01062 2957 ft 257 kts 236°
2026-05-05 22:01 -21.13042 -160.02447 2953 ft 246 kts 206°
2026-05-05 22:01 -21.14609 -160.02919 2969 ft 230 kts 169°
2026-05-05 22:02 -21.16031 -160.02348 2988 ft 217 kts 137°
2026-05-05 22:02 -21.17070 -160.01207 3003 ft 214 kts 126°
2026-05-05 22:02 -21.18055 -159.99999 2999 ft 215 kts 128°
2026-05-05 22:02 -21.19071 -159.98826 2999 ft 214 kts 129°
2026-05-05 22:03 -21.20031 -159.97694 2980 ft 193 kts 117°
2026-05-05 22:03 -21.20344 -159.96427 3006 ft 168 kts 91°
2026-05-05 22:03 -21.20290 -159.95208 2778 ft 163 kts 88°
2026-05-05 22:03 -21.20268 -159.93988 2410 ft 165 kts 90°
2026-05-05 22:04 -21.20265 -159.92764 1984 ft 164 kts 90°
2026-05-05 22:04 -21.20265 -159.91580 1858 ft 149 kts 89°
2026-05-05 22:04 -21.20270 -159.90527 1762 ft 136 kts 91°
2026-05-05 22:04 -21.20266 -159.89572 1597 ft 121 kts 91°
2026-05-05 22:05 -21.20268 -159.88668 1412 ft 121 kts 91°
2026-05-05 22:05 -21.20263 -159.87765 1230 ft 122 kts 90°
2026-05-05 22:05 -21.20269 -159.86854 1061 ft 122 kts 91°
2026-05-05 22:05 -21.20260 -159.85958 901 ft 120 kts 90°
2026-05-05 22:06 -21.20257 -159.85081 735 ft 118 kts 92°
2026-05-05 22:06 -21.20264 -159.84220 583 ft 116 kts 91°
2026-05-05 22:06 -21.20259 -159.83337 374 ft 123 kts 90°
2026-05-05 22:06 -21.20258 -159.82425 233 ft 120 kts 91°
2026-05-05 22:07 -21.20259 -159.81523 70 ft 122 kts 89°
2026-05-05 22:07 -21.20258 -159.80690 29 ft 84 kts 90°
2026-05-05 22:07 -21.20258 -159.80174 28 ft 57 kts 90°
2026-05-05 22:07 -21.20259 -159.79893 31 ft 18 kts 90°
2026-05-05 22:08 -21.20184 -159.79815 30 ft 19 kts
2026-05-05 22:08 -21.20158 -159.79818 29 ft 0 kts 350°
2026-05-05 22:09 -21.20149 -159.79821 29 ft 4 kts 339°
2026-05-05 22:09 -21.20122 -159.79851 29 ft 7 kts 309°
2026-05-05 22:10 -21.20083 -159.79867 29 ft 5 kts 12°
2026-05-05 22:10 -21.20069 -159.79861 29 ft 0 kts 29°